Regional Weather Roundup
Issued by NWS Boston, MA

Home | Current Version | Previous Version | Text Only | Print | Product List | Glossary On
Versions: 1 2 3 4 5 6 7 8 9 10 11 12 13 14 15 16 17 18 19 20 21 22 23 24 25 26 27 28
000
ASUS41 KBOX 010710
RWRBOX

REGIONAL WEATHER ROUNDUP
NATIONAL WEATHER SERVICE TAUNTON MA
300 AM EDT SUN MAY 01 2016

NOTE:  "FAIR" INDICATES FEW OR NO CLOUDS BELOW 12,000 FEET WITH NO
SIGNIFICANT WEATHER AND/OR OBSTRUCTIONS TO VISIBILITY.  THE FOLLOWING
OBSERVATION LOCATIONS DO NOT REPORT PRESENT WEATHER...PROVINCETOWN...
SMITHFIELD...BLOCK ISLAND...KEENE...AND OXFORD.

MAZALL-010800-
EASTERN MASSACHUSETTS

CITY           SKY/WX    TMP DP  RH WIND       PRES   REMARKS
BOSTON         PTCLDY    44  33  65 SW8       30.23F
BEVERLY        PTCLDY    43  31  62 SW5       30.22S
LAWRENCE       MOCLDY    45  31  58 S3        30.24S
BEDFORD        PTCLDY    43  32  65 S3        30.21S
BLUE HILL        N/A     41  32  70 SW12      30.20S
NORWOOD        CLEAR     38  34  85 S3        30.23S
MARSHFIELD     PTCLDY    37  34  87 CALM      30.25R
PLYMOUTH       CLEAR     35  33  92 CALM      30.24S
TAUNTON        CLEAR     35  32  88 CALM      30.24R
NEW BEDFORD    PTCLDY    35  34  96 CALM      30.23S
$$

MAZALL-010800-
CAPE COD AND THE ISLANDS

CITY           SKY/WX    TMP DP  RH WIND       PRES   REMARKS
FALMOUTH       PTCLDY    34  32  93 CALM      30.24R
HYANNIS        MOCLDY    35  31  85 CALM      30.23S
CHATHAM        PTCLDY    36  34  92 CALM      30.24F
PROVINCETOWN   PTCLDY    36  32  85 CALM      30.24F
NANTUCKET      CLOUDY    39  35  86 NE6       30.23F
MARTHAS VNYRD  PTCLDY    31  28  89 CALM      30.24R
$$

MAZALL-010800-
CENTRAL AND WESTERN MASSACHUSETTS

CITY           SKY/WX    TMP DP  RH WIND       PRES   REMARKS
WORCESTER      CLOUDY    42  26  53 SW14      30.20S
FITCHBURG      CLOUDY    46  28  49 SE6       30.21S
ORANGE         CLOUDY    43  34  70 S3        30.21R
SPRINGFIELD    CLOUDY    45  34  67 SE5       30.20F
WESTFIELD      CLOUDY    45  33  63 S5        30.21S
NORTH ADAMS    CLOUDY    47  40  76 CALM      30.18S
PITTSFIELD     CLOUDY    47  39  74 CALM      30.16F
$$

RIZALL-010800-
RHODE ISLAND

CITY           SKY/WX    TMP DP  RH WIND       PRES   REMARKS
PROVIDENCE     MOCLDY    42  35  76 CALM      30.24S
NEWPORT        CLOUDY    40  35  83 CALM      30.23S
BLOCK ISLAND   PTCLDY    41  36  82 CALM      30.23F
SMITHFIELD       N/A     37  34  87 CALM      30.21S
WESTERLY       CLOUDY    41  36  82 CALM      30.23F
$$

CTZALL-010800-
CONNECTICUT

CITY           SKY/WX    TMP DP  RH WIND       PRES   REMARKS
BRADLEY INTL   CLOUDY    46  33  60 S6        30.21F
HARTFORD       CLOUDY    47  37  68 SE3       30.22F
BRIDGEPORT     CLOUDY    49  37  63 CALM      30.21F
DANBURY        CLOUDY    46  36  68 CALM      30.22S
GROTON         CLOUDY    42  42 100 CALM      30.23S
NEW HAVEN      CLOUDY    47  36  65 CALM      30.22F
CHESTER        FAIR      45  37  76 CALM      30.21F
MERIDEN        CLOUDY    46  37  71 CALM      30.22S
WILLIMANTIC    CLOUDY    42  35  76 CALM      30.22F
OXFORD           N/A     45  36  70 CALM      30.22F
$$

MEZ002-015-021-024-NHZ003-005-008-011-012-014-VTZ005-008-010800-
NORTHERN NEW ENGLAND

CITY           SKY/WX    TMP DP  RH WIND       PRES   REMARKS
PORTLAND ME    CLEAR     39  35  86 CALM      30.22F
BANGOR ME      PTCLDY    37  32  82 CALM      30.23F
CONCORD NH     CLOUDY    42  31  64 CALM      30.20F
MANCHESTER NH  CLOUDY    46  32  58 SE5       30.19S
NASHUA NH      CLOUDY    45  32  60 SE3       30.21S
PORTSMOUTH NH  CLOUDY    44  31  61 S5        30.20F
JAFFREY NH     CLOUDY    44  32  62 S7        30.19S
KEENE NH       CLOUDY    45  36  70 S3        30.21R
BURLINGTON VT  FAIR      44  30  57 CALM      30.18
MT. WASHINGTON MOCLDY    30  19  64 W22         N/A  WCI  17
$$

NYZ052-076-010800-
EASTERN NEW YORK

CITY           SKY/WX    TMP DP  RH WIND       PRES   REMARKS
ALBANY         CLOUDY    53  37  54 S6        30.17F
NEW YORK CITY  CLOUDY    51  34  52 S6        30.20F
$$

ANZALL-010800-
MARINE OBSERVATIONS

STATION/POSITION TIME  TEMP    WIND        PRES    VSBY  WAVE
                       AIR SEA DIR/SP/G                  HT/PER
                 (UTC) (F)     (DEG/KT/KT) (MB)    (MI)  (FT/S)
BOSTON BUOY      0650   46 46  190/  6/  8 1022.9F         2/ 6
BUZZARDS BAY     0600   45     220/  4/  4 1024.4F
NANTUCKET SOUND  0650   47 49   CALM  /  2 1023.6F         1
MASS BAY-STELLWA 0604   45 46                N/A    1 7/8  3/ 7
ISLE OF SHOALS   0600   46     180/ 10/ 11 1023.0F
S OF BLOCK IS    NOT AVBL
$$

......................KEY.........................
  SKY/WX - SKY CONDITION/PRESENT WEATHER
  TMP    - TEMPERATURE IN FAHRENHEIT
  DWPT   - DEWPOINT IN FAHRENHEIT
  RH     - RELATIVE HUMIDITY IN PERCENT
  WIND   - DIRECTION AND SPEED IN MPH
  PRES   - MEAN SEA LEVEL PRESSURE IN INCHES OF HG
  WCI    - WIND CHILL INDEX
  VSB    - VISIBILITY IN MILES
  HX     - HEAT INDEX
  TC     - TEMPERATURE IN CELSIUS
  VRB    - VARIABLE WIND DIRECTION
  N/A    - NOT AVAILABLE




USA.gov is the U.S. government's official web portal to all federal, state and local government web resources and services.